Regional Weather Roundup
Issued by NWS

Home | Current Version | Previous Version | Text Only | Print | Product List | Glossary Off
Versions: 1 2 3 4 5 6 7 8 9 10 11 12 13 14 15 16 17 18 19 20 21 22 23 24 25 26 27 28 29 30 31 32 33 34 35 36 37 38 39 40 41 42 43 44 45 46 47 48 49 50

000
ASUS43 KMKX 230121
RWRWI

WISCONSIN REGIONAL WEATHER ROUNDUP
NATIONAL WEATHER SERVICE MILWAUKEE/SULLIVAN WI
800 PM CDT FRI SEP 22 2017

NOTE: "FAIR" INDICATES FEW OR NO CLOUDS BELOW 12,000 FEET WITH NO
SIGNIFICANT WEATHER AND/OR OBSTRUCTIONS TO VISIBILITY.

WIZ001-002-006>008-014>016-023>028-230200-
NORTHWEST WISCONSIN

CITY           SKY/WX    TMP DP  RH WIND       PRES   REMARKS
SUPERIOR ARPT  PTCLDY    64  62  92 NE7       29.80R
ASHLAND        CLEAR     67  65  93 VRB3      29.83S
HAYWARD        CLEAR     81  67  62 S10G18    29.86S HX  83
SIREN          CLEAR     82  65  54 S13G18    29.81S HX  84
CUMBERLAND     CLEAR     77  64  65 S9        29.86S
RICE LAKE      CLEAR     79  66  64 SE7       29.88S HX  81
CHETEK         CLEAR     79  69  70 SE7       29.87S HX  82
LADYSMITH      CLEAR     81  67  63 SE9       29.92S HX  83
EAU CLAIRE     CLEAR     83  67  58 S13       29.87F HX  85
MENOMONIE      PTCLDY    82  66  58 SE9       29.87S HX  83
NEW RICHMOND   CLEAR     82  64  54 S10G17    29.84R HX  83
OSCEOLA        CLEAR     83  66  55 SE15      29.84R HX  85
$$

WIZ003>005-009-010-017-018-230200-
NORTH CENTRAL WISCONSIN

CITY           SKY/WX    TMP DP  RH WIND       PRES   REMARKS
MANITOWISH WTR NOT AVBL
ARBOR VITAE    CLEAR     73  69  87 S9        29.96R
WOODRUFF       CLEAR     73  69  87 S9        29.96R
RHINELANDER    CLEAR     72  68  87 SE3       29.99R
EAGLE RIVER    CLEAR     70  67  90 S7        29.97S
LAND O LAKES   CLEAR     71  67  88 S5        29.99R
PHILLIPS       CLEAR     77  68  74 S7        29.93R
TOMAHAWK       CLEAR     71  66  85 CALM      29.97S
MEDFORD        CLEAR     74  66  76 S8        29.97R
MERRILL        CLEAR     73  70  88 SE3       29.98R
$$

WIZ029-030-035-036-043>047-230200-
CENTRAL WISCONSIN

CITY           SKY/WX    TMP DP  RH WIND       PRES   REMARKS
WAUSAU         CLEAR     77  66  68 S7        29.96R
MOSINEE        PTCLDY    75  64  69 SE5       29.99R
MARSHFIELD     CLEAR     77  65  66 S7        29.97R
STEVENS POINT  CLEAR     78  66  65 S7        29.98S HX  80
WAUPACA        CLEAR     78  67  69 SE5       29.98S HX  80
WAUTOMA        CLEAR     74  69  85 CALM      29.99R
WISC RAPIDS    CLEAR     80  67  64 S6        29.99R HX  82
CAMP DOUGLAS   CLEAR     80  66  62 S5        29.96S HX  82
$$

WIZ011>013-019>022-031-037>040-048>050-230200-
NORTHEAST WISCONSIN

CITY           SKY/WX    TMP DP  RH WIND       PRES   REMARKS
ANTIGO         CLEAR     69  66  89 SE10      30.00F
SHAWANO        CLEAR     72  65  80 CALM      29.97F
OCONTO         CLEAR     73  64  73 S8        29.97F
STURGEON BAY   CLEAR     71  67  87 SE12      29.99F
GREEN BAY      CLEAR     74  71  91 S8        29.98S
MANITOWOC      CLEAR     70  67  90 SE3       30.02F
APPLETON       PTCLDY    75  64  69 SE7       29.99R
CLINTONVILLE   NOT AVBL
OSHKOSH        CLEAR     75  69  81 S5        29.99S
$$

WIZ032>034-041-042-053>061-230200-
SOUTHWEST WISCONSIN

CITY           SKY/WX    TMP DP  RH WIND       PRES   REMARKS
LA CROSSE      CLEAR     86  68  54 S8        29.91R HX  89
SPARTA         CLEAR     80  67  64 S7        29.95S HX  83
VIROQUA        CLEAR     79  68  70 S8        29.98S HX  81
BOSCOBEL       CLEAR     85  66  53 S6        29.96S HX  87
PRAIRIE DU CHI CLEAR     83  64  52 SE7       29.95R HX  84
PLATTEVILLE    CLEAR     79  68  69 SE7       30.00S HX  81
$$

WIZ056-057-062-063-064-067-068-230200-
SOUTH CENTRAL WISCONSIN

CITY           SKY/WX    TMP DP  RH WIND       PRES   REMARKS
REEDSBURG      CLEAR     78  67  67 S3        29.97S HX  80
BARABOO/DELLS  CLEAR     79  62  56 S6        29.98S HX  80
LONE ROCK      CLEAR     76  68  76 S3        29.97S
MINERAL POINT  CLEAR     79  68  69 S6        30.01S HX  81
MADISON        PTCLDY    81  66  60 S6        29.99S HX  83
MIDDLETON      CLEAR     81  64  57 CALM      30.00S HX  83
WATERTOWN      CLEAR     76  66  72 CALM      30.00S
MONROE         CLEAR     81  61  50 S7        30.01S HX  81
JANESVILLE     CLEAR     81  64  57 SE6       30.00S HX  82
$$

WIZ051-052-058>065-066-070>072-230200-
SOUTHEAST WISCONSIN

CITY           SKY/WX    TMP DP  RH WIND       PRES   REMARKS
MILWAUKEE      PTCLDY    80  67  64 S9        30.01S HX  82
WAUKESHA       CLEAR     79  64  61 S7        30.03R HX  81
MILWAUKEE/TIMM CLEAR     82  61  47 S9        30.02R HX  83
RACINE         CLEAR     78  69  73 S8        30.04S HX  80
BURLINGTON     CLEAR     78  67  70 SE6       30.02S HX  80
KENOSHA        CLEAR     78  66  66 S3        30.03S HX  80
FOND DU LAC    CLEAR     78  66  66 E3        30.00R HX  80
SHEBOYGAN      CLEAR     74  69  85 E5        30.01S
WEST BEND        N/A     77  64  65 S3        30.01S
JUNEAU         CLEAR     79  65  63 S7        30.01S HX  81
$$

LSZ147-162-230200-
LAKE SUPERIOR

STATION/POSITION TIME  TEMP    WIND        PRES    WAVE
                       AIR SEA DIR/SP/G            HT/PER
                 (UTC) (F)     (DEG/KT/KT) (MB)    (FT/S)
W MID LAKE BUOY  0050   60 55   70/ 12/ 12 1010.7F   2/ 4
DEVILS ISLAND    0100   63      90/ 12/ 14 1010.2F
SAXON HARBOR     0040   79     180/  6/ 10 1009.1F
$$

LMZ867-665-643>646-230200-
LAKE MICHIGAN

STATION/POSITION TIME  TEMP    WIND        PRES    WAVE
                       AIR SEA DIR/SP/G            HT/PER
                 (UTC) (F)     (DEG/KT/KT) (MB)    (FT/S)
S GREEN BAY BUOY 0100   72 67  150/ 14/ 17 1014.6
N MID LAKE BUOY  0050   69 66  170/ 12/ 14 1015.2R   2/ 4
NORTHPORT PIER   0040   71     170/  9/ 14 1014.9S
KEWAUNEE LAKESHO 0054   67     180/ 10/ 11 1015.2F
SHEBOYGAN LAKESH 0100   74     160/ 10/ 11 1015.8S
PORT WASHINGTON  0030   73     200/  6/  9 1016.9R
ATWATER BUOY     0009   73 66  180/ 12/ 14 1016.4S
MILWAUKEE LAKESH 0100   74     190/  3/  4   N/A
S MID LAKE BUOY  0050   75 70  120/ 10/ 10 1016.6F   0
KENOSHA   LAKESH 0100   76     180/ 10/ 11 1015.9
$$

TC  - TEMPERATURE IN CELSIUS
VSB - VISIBILITY IN STATUTE MILES
WCI - WIND CHILL INDEX
HX  - HEAT INDEX





USA.gov is the U.S. government's official web portal to all federal, state and local government web resources and services.